www.pogodaiklimat.ru

Погода и климат >> Архив погоды >> Россия >> Крым >> Клепинино


ПОГОДА в Клепинино

  • Прогноз погоды в Клепинино
  • Монитор погоды в Клепинино
  • Климат города

АРХИВ ПОГОДЫ в Клепинино

Время (UTC), дата Ветер
(напр.,м/с)
 
Видим.   Явления Облачность Т
(С)
Тd
(С)
f
(%)
Тe
(С)
Тes
(С)
Комфортность P
(гПа)
Po
(гПа)
Тmin
(С)
Tmax
(С)
R
(мм)
R24
(мм)
S
(см)
15 11.10 С 1 20 км 2 балла +13.9 +5.3 56 +14 +14 1023.2 1018.7
18 11.10 штиль 0 н/о ясно +7.0 +5.6 91 +6 +6 1024.6 1020.0 +15.7
21 11.10 штиль 0 н/о ясно +4.3 +3.3 93 +3 +3 1024.6 1020.0
00 12.10 штиль 0 н/о ясно +4.0 +3.0 93 +3 +3 1024.6 1020.0
03 12.10 Ю 1 н/о 4 балла +4.2 +3.2 93 +3 +3 1023.3 1018.7 +3.6
06 12.10 З 3 20 км 10 баллов +9.7 +1.1 55 +8 +8 1023.2 1018.7 +3.6
09 12.10 СЗ 5 20 км 10 баллов +17.8 +9.9 60 +17 +17 1023.1 1018.7
12 12.10 З 6 20 км 10 баллов +19.2 +9.4 53 +20 +20 1021.7 1017.3
15 12.10 ЮЗ 5 20 км 9 баллов +16.7 +11.2 70 +16 +16 1023.1 1018.7
18 12.10 ЮЗ 2 н/о ясно +12.7 +10.9 89 +12 +12 1023.2 1018.7 +20.3
21 12.10 ЮЗ 3 н/о 9 баллов +12.1 +10.5 90 +10 +10 1023.2 1018.7
00 13.10 З 3 н/о 1 балл +11.2 +10.1 93 +9 +9 1021.8 1017.3
03 13.10 ЮЗ 2 н/о ясно +10.8 +9.9 94 +9 +9 1021.8 1017.3 +10.5
06 13.10 ЮЗ 2 20 км 9 баллов +14.5 +11.5 82 +14 +14 1021.8 1017.3 +10.2
09 13.10 ЮЗ 4 20 км 10 баллов +19.2 +11.2 60 +20 +20 1020.4 1016.0
12 13.10 З 5 20 км 7 баллов +20.5 +10.0 51 +22 +23 комфорт 1019.1 1014.7
15 13.10 ЮЗ 5 20 км 6 баллов +17.1 +12.6 75 +16 +16 1017.7 1013.3
18 13.10 З 3 н/о 10 баллов +15.2 +13.9 92 +14 +14 1017.7 1013.3 +21.8
21 13.10 С 5 н/о 10 баллов +12.3 +10.0 86 +10 +10 1019.2 1014.7
00 14.10 ЮЗ 2 н/о 10 баллов +10.0 +9.5 97 +8 +8 1017.8 1013.3
03 14.10 ЮЗ 2 н/о 7 баллов +6.9 +6.5 97 +4 +4 1019.3 1014.7 +6.7 0.0
06 14.10 З 3 20 км ясно +10.4 +8.5 88 +8 +9 1019.2 1014.7 +6.3 0.0
09 14.10 СЗ 4 20 км 9 баллов +14.3 +5.6 56 +13 +14 1019.2 1014.7
12 14.10 СЗ 5 20 км 9 баллов +15.8 +5.4 50 +15 +15 1019.1 1014.7
15 14.10 СЗ 4 20 км 10 баллов +13.7 +8.1 69 +12 +12 1019.2 1014.7
18 14.10 СЗ 2 н/о 9 баллов +12.8 +7.7 71 +12 +12 1020.5 1016.0 +17.6
21 14.10 СЗ 3 н/о 10 баллов +12.0 +6.7 70 +11 +11 1021.8 1017.3
00 15.10 СЗ 1 н/о 6 баллов +8.6 +4.6 76 +8 +8 1021.9 1017.3
03 15.10 ЮЗ 1 н/о ясно +6.2 +4.0 86 +5 +5 1021.9 1017.3 +6.1
06 15.10 З 2 20 км 10 баллов +9.7 +6.1 78 +8 +8 1023.2 1018.7 +5.4
09 15.10 З 5 20 км 10 баллов +13.6 +6.7 63 +12 +12 1021.8 1017.3
12 15.10 З 5 20 км 10 баллов +15.8 +12.5 81 +15 +15 1020.4 1016.0
15 15.10 З 5 20 км 10 баллов +15.4 +13.9 91 +14 +14 1019.1 1014.7
18 15.10 З 4 н/о 10 баллов +15.8 +14.0 89 +15 +15 1019.1 1014.7 +16.7
21 15.10 СЗ 6 н/о 10 баллов +17.0 +13.5 80 +16 +16 1017.7 1013.3
00 16.10 С 6 н/о 2 балла +13.6 +9.6 77 +11 +11 1019.2 1014.7
06 16.10 С 4 20 км 4 балла +10.9 +8.8 87 +8 +9 1023.2 1018.7 +8.6
09 16.10 С 4 20 км 7 баллов +15.5 +3.9 46 +15 +16 1024.5 1020.0
12 16.10 СЗ 6 20 км 6 баллов +17.2 +2.8 38 +16 +17 1024.4 1020.0
15 16.10 СЗ 3 20 км 10 баллов +15.7 +3.2 43 +15 +15 1024.5 1020.0
18 16.10 СЗ 3 н/о ясно +12.7 +9.2 79 +11 +11 1025.8 1021.3 +18.2
21 16.10 З 2 н/о ясно +10.3 +8.9 91 +9 +9 1025.8 1021.3
00 17.10 ЮЗ 2 н/о ясно +9.1 +8.0 93 +7 +7 1025.9 1021.3
03 17.10 З 3 н/о ясно +9.9 +9.1 95 +8 +8 1024.5 1020.0 +8.5
06 17.10 З 5 20 км ясно +14.4 +12.8 90 +13 +13 1024.5 1020.0 +8.5
09 17.10 З 5 20 км 1 балл +21.0 +12.7 59 +23 +26 комфорт 1024.4 1020.0
12 17.10 З 5 20 км 1 балл +22.3 +12.0 52 +25 +27 комфорт 1023.0 1018.7
15 17.10 З 5 20 км ясно +17.4 +14.7 84 +17 +17 1023.1 1018.7
18 17.10 ЮЗ 3 н/о ясно +14.9 +13.9 94 +14 +14 1024.5 1020.0 +23.4
21 17.10 З 2 н/о ясно +13.4 +12.8 96 +13 +13 1024.5 1020.0
00 18.10 штиль 0 н/о дымка ясно +9.9 +9.6 98 +9 +9 1024.5 1020.0
03 18.10 штиль 0 н/о туман н/о +8.0 +8.0 100 +7 1024.6 1020.0 +7.9
06 18.10 штиль 0 4000 м в посл. час туман 9 баллов +9.4 +9.3 99 +8 +9 1025.9 1021.3 +7.0
09 18.10 штиль 0 20 км ясно +17.3 +11.3 68 +17 +26 1024.4 1020.0

 

Местоположение метеостанции Клепинино (Крым, Россия): широта 45.53 долгота 34.18 высота над уровнем моря 37 м.

В архиве по умолчанию представлена погода в Клепинино за последнюю неделю. Архивные данные за месяц целиком и за предыдущие месяцы, начиная с января 2011 года, Вы можете получить, выбрав интересующий диапазон дат из раскрывающегося списка и нажав кнопку "Ввод!".

Внимание! Время в таблицах - всемирное. Для получения местного времени необходимо прибавить поправку, которая в Клепинино равна 3 ч.

Смотрите также архив погоды в соседних городах и на ближайших метеорологических станциях:

Погода в Джанкое (Крым, Россия) (27 км)
Погода в Стрелковом (Херсонская область, Украина) (29 км)
Погода в Нижнегорском (Крым, Россия) (44 км)
Погода в Симферополе (Крым, Россия) (58 км)
Погода в Белогорске (Крым, Россия) (63 км)
Погода в Евпатории (Крым, Россия) (74 км)
Погода в Хорлах (Херсонская область, Украина) (81 км)
Погода в Геническе (Херсонская область, Украина) (87 км)
Погода в Алуште (Крым, Россия) (97 км)
Погода в Аскании-Нове (Херсонская область, Украина) (105 км)

Пояснения к столбцам:

Ветер - указаны скорость ветра в м/с - средняя за 10 мин, порывы в срок и между сроками (в фигурных скобках) и направление, откуда дует ветер: С - северный, СВ - северо-восточный, В - восточный, ЮВ - юго-восточный, Ю - южный, ЮЗ - юго-западный, З - западный, СЗ - северо-западный.
Видимость - горизонтальная дальность видимости в метрах или километрах. При видимости от 1 до 10 км при отсутствии осадков обычно наблюдается дымка, при ухудшении видимости до 1 км и менее - туман. В сухую погоду видимость может ухудшаться дымом, пылью или мглою.
Явления - указаны атмосферные явления, наблюдавшиеся в срок или в последний час перед сроком; фигурными скобками обозначены явления, наблюдавшиеся между сроками (за 1-3 часа до срока); квадратными скобками обозначены град или гололедные отложения с указанием их диаметра в мм.
Облачность - указаны через наклонную черту общая и нижняя облачность в баллах и высота нижней границы облаков в метрах; квадратными скобками обозначены формы облаков: Ci - перистые, Cs - перисто-слоистые, Cc - перисто-кучевые, Ac - высококучевые, As - высокослоистые, Sc - слоисто-кучевые, Ns - слоисто-дождевые, Cu - кучевые, Cb - кучево-дождевые. Подробнее классификацию облаков см. в Атласе облаков (PDF).
T - Температура воздуха - температура, измеренная на высоте 2 м над землей.
Td - Температура точки росы - температура, при понижении до которой содержащийся в воздухе водяной пар достигнет насыщения.
f - Относительная влажность воздуха - влажноcть воздуха, измеренная на высоте 2 м над землей.
Te - Эффективная температура - температура, которую ощущает одетый по сезону человек в тени. Характеристика душности погоды. При расчете учитывается влияние влажности воздуха и скорости ветра на теплоощущения человека.
Tes - Эффективная температура на солнце - температура, которую ощущает человек, с поправкой на солнечный нагрев. Характеристика знойности погоды. Зависит от высоты солнца над горизонтом, облачности и скорости ветра. Ночью, в пасмурную погоду, а также при ветре 12 м/с и более поправка равна нулю.
P - Атмосферное давление - приведенное к уровню моря атмосферное давление.
Po - Атмосферное давление - измеренное на уровне метеостанции атмосферное давление.
Tmin - Минимальная температура - минимум температуры воздуха на высоте 2 м над землей.
Tmax - Максимальная температура - максимум температуры воздуха на высоте 2 м над землей.
R - Количество осадков - Количество выпавших осадков за период времени, мм. При наведении курсора мыши на число - период времени, за который выпало указанное количество осадков.
R24 - Количество осадков - Количество выпавших осадков за 24 часа, мм.
S - Снежный покров - Высота снежного покрова, см. При наведении курсора мыши на число - состояние снежного покрова и степень покрытия местности в баллах.